{"data":{"norad_id":59191,"epoch":"2026-09-19T21:01:00.727104Z","epoch_age_seconds":212714,"freshness":"STALE","line1":"1 59191U 24045P   26262.87570286  .00000472  00000+0  26688-4 0  9997","line2":"2 59191  43.0026  72.0994 0001478 254.3895 105.6793 15.27579218142903","mean_motion":15.27579218,"eccentricity":0.0001478,"inclination_deg":43.0026,"raan_deg":72.0994,"arg_perigee_deg":254.3895,"mean_anomaly_deg":105.6793,"bstar":2.6688e-5,"rev_number":14290,"period_min":94.266796970787,"perigee_km":482.03735397889,"apogee_km":484.06552128106,"semimajor_km":6861.18843763,"source":"CELESTRAK","updated_at":"2026-09-21T09:00:34.064681Z"}}